TimePDT,TemperatureF,Dew PointF,Humidity,Sea Level PressureIn,VisibilityMPH,Wind Direction,Wind SpeedMPH,Gust SpeedMPH,PrecipitationIn,Events,Conditions,WindDirDegrees,DateUTC
12:16 AM,59.0,55.4,88,29.99,2.5,SE,8.1,-,0.02,Rain,Light Rain,130,2013-09-23 07:16:00
12:28 AM,59.0,57.2,94,30.00,4.0,SE,8.1,-,0.02,Rain,Light Rain,140,2013-09-23 07:28:00
12:53 AM,59.0,57.0,93,30.01,4.0,SE,6.9,-,0.02,,Overcast,140,2013-09-23 07:53:00
1:53 AM,60.1,57.0,90,30.01,10.0,SE,9.2,-,N/A,,Overcast,140,2013-09-23 08:53:00
2:53 AM,60.1,57.0,90,30.01,6.0,SSE,4.6,-,0.02,Rain,Light Rain,150,2013-09-23 09:53:00
3:07 AM,60.8,57.2,88,30.00,2.5,SSE,4.6,-,0.03,Rain,Light Rain,150,2013-09-23 10:07:00
3:26 AM,60.8,57.2,88,30.00,4.0,SE,4.6,-,0.05,Rain,Light Rain,140,2013-09-23 10:26:00
3:53 AM,60.1,57.0,90,30.01,10.0,SE,5.8,-,0.05,,Overcast,130,2013-09-23 10:53:00
4:06 AM,60.8,57.2,88,29.99,10.0,SE,6.9,-,N/A,,Overcast,130,2013-09-23 11:06:00
4:53 AM,60.1,57.9,93,30.01,3.0,SSE,4.6,-,0.01,Rain,Light Rain,150,2013-09-23 11:53:00
5:01 AM,60.8,57.2,88,29.99,2.5,SSE,4.6,-,0.00,Rain,Light Rain,150,2013-09-23 12:01:00
5:08 AM,60.8,57.2,88,29.99,4.0,SSE,5.8,-,0.00,,Overcast,160,2013-09-23 12:08:00
5:53 AM,60.1,57.9,93,30.01,10.0,SE,4.6,-,0.00,,Overcast,140,2013-09-23 12:53:00
6:14 AM,60.8,57.2,88,30.00,10.0,SE,3.5,-,N/A,,Overcast,140,2013-09-23 13:14:00
6:50 AM,60.8,57.2,88,30.01,10.0,SSE,4.6,-,N/A,,Overcast,150,2013-09-23 13:50:00
6:53 AM,61.0,57.9,90,30.03,9.0,SE,6.9,-,0.00,Rain,Light Rain,140,2013-09-23 13:53:00
7:07 AM,60.8,57.2,88,30.02,10.0,SE,4.6,-,0.00,,Overcast,140,2013-09-23 14:07:00
7:22 AM,60.8,57.2,88,30.01,10.0,ESE,5.8,-,0.00,,Overcast,120,2013-09-23 14:22:00
7:53 AM,61.0,57.9,90,30.04,10.0,SE,4.6,-,0.00,,Overcast,140,2013-09-23 14:53:00
8:53 AM,64.0,60.1,87,30.05,10.0,SE,5.8,-,N/A,,Overcast,130,2013-09-23 15:53:00
9:53 AM,64.9,59.0,81,30.07,10.0,Variable,4.6,-,N/A,,Scattered Clouds,0,2013-09-23 16:53:00
10:53 AM,66.0,57.9,75,30.07,9.0,Calm,Calm,-,N/A,,Overcast,0,2013-09-23 17:53:00
11:53 AM,66.0,57.0,73,30.08,10.0,West,4.6,-,N/A,,Mostly Cloudy,280,2013-09-23 18:53:00
12:53 PM,68.0,54.0,61,30.07,10.0,NW,6.9,-,N/A,,Clear,310,2013-09-23 19:53:00
1:53 PM,68.0,55.9,65,30.06,10.0,NW,8.1,-,N/A,,Scattered Clouds,320,2013-09-23 20:53:00
2:53 PM,66.9,59.0,76,30.06,10.0,NW,9.2,-,N/A,,Partly Cloudy,320,2013-09-23 21:53:00
3:25 PM,66.2,60.8,83,30.04,10.0,NW,9.2,-,N/A,,Overcast,320,2013-09-23 22:25:00
3:34 PM,66.2,60.8,83,30.04,9.0,NW,10.4,-,N/A,,Overcast,320,2013-09-23 22:34:00
3:53 PM,66.0,60.1,81,30.06,10.0,NNW,8.1,-,N/A,,Mostly Cloudy,330,2013-09-23 22:53:00
4:25 PM,66.2,57.2,73,30.04,10.0,NNW,6.9,-,N/A,,Partly Cloudy,330,2013-09-23 23:25:00
4:53 PM,66.0,59.0,78,30.05,10.0,NNW,5.8,-,N/A,,Partly Cloudy,340,2013-09-23 23:53:00
5:53 PM,64.0,59.0,84,30.04,8.0,NW,6.9,-,N/A,,Partly Cloudy,320,2013-09-24 00:53:00
6:53 PM,62.1,55.9,80,30.04,4.0,Calm,Calm,-,N/A,,Haze,0,2013-09-24 01:53:00
7:53 PM,60.1,55.9,86,30.04,10.0,Calm,Calm,-,N/A,,Partly Cloudy,0,2013-09-24 02:53:00
8:53 PM,59.0,55.9,90,30.05,10.0,Calm,Calm,-,N/A,,Clear,0,2013-09-24 03:53:00
9:53 PM,57.9,55.0,90,30.05,10.0,Calm,Calm,-,N/A,,Clear,0,2013-09-24 04:53:00
10:53 PM,57.0,54.0,89,30.05,10.0,Calm,Calm,-,N/A,,Clear,0,2013-09-24 05:53:00
11:53 PM,55.9,53.1,90,30.05,10.0,East,3.5,-,N/A,,Mostly Cloudy,90,2013-09-24 06:53:00